1319503832326,0.000162905
1319503892326,0.000163039
1319503952326,0.000163926
1319504012326,0.000163339
1319504072326,0.000161120
1319507432336,0.000160745
1319507492336,0.000160814
1319507552336,0.000162737
1319507612336,0.000160883
1319507672336,0.000157814
1319511032346,0.000160356
1319511092346,0.000160656
1319511152346,0.000158964
1319511212346,0.000159992
1319511272346,0.000159251
1319514632356,0.000161402
1319514692356,0.000159709
1319514752356,0.000159442
1319514812356,0.000160686
1319514872356,0.000157938
1319518232366,0.000157796
1319518292366,0.000158865
1319518352366,0.000159413
1319518412366,0.000158951
1319518472366,0.000156291
1319521832376,0.000160038
1319521892376,0.000160578
1319521952376,0.000158344
1319522012376,0.000158365
1319522072376,0.000158961
1319525432386,0.000156651
1319525492386,0.000156469
1319525552386,0.000156360
1319525612386,0.000156640
1319525672386,0.000154472
1319529032397,0.000156788
1319529092397,0.000157701
1319529152397,0.000159136
1319529212397,0.000158743
1319529272397,0.000158302
1319532632407,0.000155515
1319532692407,0.000155839
1319532752407,0.000155503
1319532812407,0.000156614
1319532872407,0.000154552
1319536232418,0.000156701
1319536292418,0.000155446
1319536352418,0.000156188
1319536412418,0.000157435
1319536472418,0.000154552
1319539832429,0.000154458
1319539892429,0.000156933
1319539952429,0.000156596
1319540012429,0.000155685
1319540072429,0.000153643
1319543432440,0.000155006
1319543492440,0.000157997
1319543552440,0.000156078
1319543612440,0.000154506
1319543672440,0.000155025
1319547032452,0.000156984
1319547092452,0.000155994
1319547152452,0.000156613
1319547212452,0.000158887
1319547272452,0.000154666
1319550632463,0.000157555
1319550692463,0.000159570
1319550752463,0.000159587
1319550812463,0.000158632
1319550872463,0.000161167
1319554232475,0.000156796
1319554292475,0.000157243
1319554352475,0.000157169
1319554412475,0.000156931
1319554472475,0.000153466
1319557832504,0.000155309
1319557892504,0.000154800
1319557952504,0.000155711
1319558012504,0.000158089
1319558072504,0.000155880
1319561432516,0.000157914
1319561492516,0.000155626
1319561552516,0.000156936
1319561612516,0.000158503
1319561672516,0.000155291
1319565032528,0.000158008
1319565092528,0.000158856
1319565152528,0.000158232
1319565212528,0.000157776
1319565272528,0.000159056
1319568632539,0.000156388
1319568692539,0.000157304
1319568752539,0.000159250
1319568812539,0.000158073
1319568872539,0.000155301
1319572232551,0.000160224
1319572292551,0.000158120
1319572352551,0.000157166
1319572412551,0.000158169
1319572472551,0.000158507
1319572532551,0.000157413
1319572592551,0.000157087
1319572652551,0.000156874
1319572712551,0.000157796
1319572772551,0.000157067
1319572832553,0.000156296
1319572892553,0.000158477
1319572952553,0.000159056
1319573012553,0.000160536
1319573072553,0.000163665
1319573132553,0.000162834
1319573192553,0.000160080
1319573252553,0.000163369
1319573312553,0.000167572
1319573372553,0.000171725
1319573432553,0.000172292
1319573492553,0.000163905
1319573552553,0.000164643
1319573612553,0.000163939
1319573672553,0.000166774
1319573732553,0.000166692
1319573792553,0.000165155
1319573852553,0.000161028
1319573912553,0.000160900
1319573972553,0.000159818
1319574032553,0.000159181
1319574092553,0.000158411
1319574152553,0.000158330
1319574212553,0.000160449
1319574272553,0.000160197
1319574332553,0.000159212
1319574392553,0.000159499
1319574452553,0.000158133
1319574512553,0.000160941
1319574572553,0.000158079
1319574632553,0.000161575
1319574692553,0.000161197
1319574752553,0.000160171
1319574812553,0.000159604
1319574872553,0.000161548
1319574932553,0.000160272
1319574992553,0.000160463
1319575052553,0.000159967
1319575112553,0.000158880
1319575172553,0.000159489
1319575232553,0.000156926
1319575292553,0.000157401
1319575352553,0.000157065
1319575412553,0.000158251
1319575472553,0.000157074
1319575532553,0.000157653
1319575592553,0.000157047
1319575652553,0.000158284
1319575712553,0.000159513
1319575772553,0.000157585
1319575832553,0.000158384
1319575892553,0.000158526
1319575952553,0.000158748
1319576012553,0.000159495
1319576072553,0.000160273
1319576132553,0.000159387
1319576192553,0.000159281
1319576252553,0.000157828
1319576312553,0.000157334
1319576372553,0.000158895
1319576432564,0.000157760
1319576492564,0.000158538
1319576552564,0.000158061
1319576612564,0.000157865
1319576672564,0.000159319
1319576732564,0.000159265
1319576792564,0.000158832
1319576852564,0.000159740
1319576912564,0.000157146
1319576972564,0.000159927
1319577032564,0.000159559
1319577092564,0.000160228
1319577152564,0.000159985
1319577212564,0.000161171
1319577272564,0.000159611
1319577332564,0.000157571
1319577392564,0.000158304
1319577452564,0.000159019
1319577512564,0.000157444
1319577572564,0.000157805
1319577632564,0.000157455
1319577692564,0.000160349
1319577752564,0.000157548
1319577812564,0.000156640
1319577872564,0.000160012
1319577932564,0.000157706
1319577992564,0.000157116
1319578052564,0.000157286
1319578112564,0.000158064
1319578172564,0.000157660
1319578232564,0.000159265
1319578292564,0.000160309
1319578352564,0.000158676
1319578412564,0.000159194
1319578472564,0.000158954
1319578532564,0.000161420
1319578592564,0.000160669
1319578652564,0.000160589
1319578712564,0.000159100
1319578772564,0.000159380
1319578832564,0.000160100
1319578892564,0.000159357
1319578952564,0.000159534
1319579012564,0.000158922
1319579072564,0.000157595
1319579132564,0.000157903
1319579192564,0.000156401
1319579252564,0.000156735
1319579312564,0.000157630
1319579372564,0.000156562
1319579432564,0.000156629
1319579492564,0.000158093
1319579552564,0.000158805
1319579612564,0.000156619
1319579672564,0.000159992
1319579732564,0.000158621
1319579792564,0.000157591
1319579852564,0.000156660
1319579912564,0.000157570
1319579972564,0.000157026
1319580032575,0.000158202
1319580092575,0.000159414
1319580152575,0.000159104
1319580212575,0.000159403
1319580272575,0.000160654
1319580332575,0.000159527
1319580392575,0.000160868
1319580452575,0.000158049
1319580512575,0.000157169
1319580572575,0.000158324
1319580632575,0.000158402
1319580692575,0.000158852
1319580752575,0.000157769
1319580812575,0.000158421
1319580872575,0.000158175
1319580932575,0.000157160
1319580992575,0.000157846
1319581052575,0.000157086
1319581112575,0.000157614
1319581172575,0.000158289
1319581232575,0.000156400
1319581292575,0.000158712
1319581352575,0.000157914
1319581412575,0.000161380
1319581472575,0.000161604
1319581532575,0.000160802
1319581592575,0.000159734
1319581652575,0.000159948
1319581712575,0.000160148
1319581772575,0.000158974
1319581832575,0.000159231
1319581892575,0.000160923
1319581952575,0.000159604
1319582012575,0.000159735
1319582072575,0.000159317
1319582132575,0.000157325
1319582192575,0.000156820
1319582252575,0.000157762
1319582312575,0.000157172
1319582372575,0.000157974
1319582432575,0.000159972
1319582492575,0.000159119
1319582552575,0.000157386
1319582612575,0.000158997
1319582672575,0.000158648
1319582732575,0.000158627
1319582792575,0.000157092
1319582852575,0.000157140
1319582912575,0.000157273
1319582972575,0.000158580
1319583032575,0.000158029
1319583092575,0.000158426
1319583152575,0.000157155
1319583212575,0.000157075
1319583272575,0.000156487
1319586632595,0.000159237
1319586692595,0.000159787
1319586752595,0.000160230
1319586812595,0.000161451
1319586872595,0.000161514
